• In Belarus
  • List of Countries
  • For 7 days
  • Water Temperature
  • Satellite Maps
  • Weather Map
  • Weather Widgets
  • user-avatar
    Login

    Hourly Weather Nenaste

    Today, 20 May, Monday

    Time Temperature Precipitation Wind Pressure Humidity
    00:00 -2°C° 0 mm 2 mps 724 mmHg 94%
    01:00 -2°C° 0 mm 2 mps 724 mmHg 95%
    02:00 -2°C° 0 mm 2 mps 724 mmHg 96%
    03:00 -3°C° 0 mm 2 mps 724 mmHg 96%
    04:00 -3°C° 0 mm 2 mps 724 mmHg 97%
    05:00 -2°C° 0 mm 2 mps 724 mmHg 93%
    06:00 +1°C° 0 mm 2 mps 724 mmHg 90%
    07:00 +1°C° 0 mm 3 mps 725 mmHg 86%
    08:00 +2°C° 0.4 mm 3 mps 725 mmHg 84%
    09:00 +1°C° 0.4 mm 4 mps 725 mmHg 82%
    10:00 +1°C° 0 mm 4 mps 725 mmHg 83%
    11:00 +3°C° 0.7 mm 4 mps 725 mmHg 78%
    12:00 +4°C° 0.7 mm 4 mps 725 mmHg 74%
    13:00 +5°C° 0.7 mm 4 mps 725 mmHg 70%
    14:00 +6°C° 0.4 mm 4 mps 725 mmHg 68%
    15:00 +6°C° 0.4 mm 4 mps 725 mmHg 66%
    16:00 +7°C° 0 mm 4 mps 725 mmHg 60%
    17:00 +7°C° 0.2 mm 3 mps 726 mmHg 64%
    18:00 +7°C° 0.2 mm 3 mps 726 mmHg 67%
    19:00 +5°C° 0.2 mm 3 mps 726 mmHg 71%
    20:00 +5°C° 0 mm 2 mps 726 mmHg 75%
    21:00 +4°C° 0 mm 2 mps 726 mmHg 80%
    22:00 +2°C° 0 mm 2 mps 726 mmHg 84%
    23:00 +2°C° 0 mm 2 mps 726 mmHg 85%

    Tomorrow, 21 May, Tuesday

    Time Temperature Precipitation Wind Pressure Humidity
    00:00 +1°C° 0 mm 2 mps 726 mmHg 86%
    01:00 -1°C° 0 mm 2 mps 726 mmHg 87%
    02:00 -1°C° 0 mm 2 mps 726 mmHg 86%
    03:00 -2°C° 0 mm 2 mps 726 mmHg 86%
    04:00 -2°C° 0 mm 2 mps 727 mmHg 86%
    05:00 +1°C° 0 mm 2 mps 727 mmHg 79%
    06:00 +1°C° 0 mm 3 mps 727 mmHg 72%
    07:00 +3°C° 0 mm 3 mps 727 mmHg 65%
    08:00 +4°C° 0 mm 4 mps 728 mmHg 57%
    09:00 +6°C° 0 mm 5 mps 728 mmHg 50%
    10:00 +7°C° 0 mm 5 mps 728 mmHg 42%
    11:00 +7°C° 0 mm 5 mps 728 mmHg 41%
    12:00 +8°C° 0 mm 5 mps 728 mmHg 40%
    13:00 +9°C° 0 mm 5 mps 728 mmHg 38%
    14:00 +9°C° 0 mm 5 mps 728 mmHg 38%
    15:00 +10°C° 0 mm 5 mps 728 mmHg 38%
    16:00 +11°C° 0 mm 4 mps 728 mmHg 38%
    17:00 +10°C° 0 mm 4 mps 728 mmHg 43%
    18:00 +9°C° 0 mm 3 mps 728 mmHg 48%
    19:00 +9°C° 0 mm 2 mps 728 mmHg 53%
    20:00 +7°C° 0 mm 2 mps 728 mmHg 58%
    21:00 +5°C° 0 mm 2 mps 728 mmHg 62%
    22:00 +3°C° 0 mm 2 mps 728 mmHg 67%
    23:00 +3°C° 0 mm 2 mps 728 mmHg 68%

    Day after tomorrow, 22 May, Wednesday

    Time Temperature Precipitation Wind Pressure Humidity
    00:00 +2°C° 0 mm 2 mps 728 mmHg 68%
    01:00 +2°C° 0 mm 2 mps 728 mmHg 69%
    02:00 +1°C° 0 mm 2 mps 728 mmHg 70%
    03:00 +1°C° 0 mm 2 mps 729 mmHg 71%
    04:00 +2°C° 0 mm 1 mps 729 mmHg 72%
    05:00 +2°C° 0 mm 2 mps 729 mmHg 66%
    06:00 +4°C° 0 mm 2 mps 729 mmHg 59%
    07:00 +6°C° 0 mm 2 mps 729 mmHg 53%
    08:00 +8°C° 0 mm 2 mps 729 mmHg 47%
    09:00 +10°C° 0 mm 3 mps 729 mmHg 41%
    10:00 +11°C° 0 mm 3 mps 729 mmHg 35%
    11:00 +12°C° 0 mm 3 mps 729 mmHg 34%
    12:00 +13°C° 0 mm 3 mps 729 mmHg 33%
    13:00 +13°C° 0 mm 3 mps 728 mmHg 32%
    14:00 +13°C° 0 mm 4 mps 728 mmHg 33%
    15:00 +14°C° 0 mm 4 mps 728 mmHg 35%
    16:00 +14°C° 0 mm 4 mps 728 mmHg 36%
    17:00 +13°C° 0 mm 3 mps 727 mmHg 42%
    18:00 +13°C° 0 mm 2 mps 727 mmHg 47%
    19:00 +12°C° 0 mm 2 mps 727 mmHg 53%
    20:00 +10°C° 0 mm 2 mps 727 mmHg 57%
    21:00 +9°C° 0 mm 2 mps 727 mmHg 62%
    22:00 +7°C° 0 mm 2 mps 727 mmHg 67%
    23:00 +7°C° 0 mm 2 mps 726 mmHg 70%

    23 May, Thursday

    Time Temperature Precipitation Wind Pressure Humidity
    00:00 +6°C° 0 mm 2 mps 726 mmHg 73%
    01:00 +6°C° 0 mm 2 mps 726 mmHg 76%
    02:00 +6°C° 0 mm 2 mps 726 mmHg 79%
    03:00 +5°C° 0 mm 2 mps 725 mmHg 83%
    04:00 +4°C° 0 mm 2 mps 725 mmHg 86%
    05:00 +5°C° 0 mm 3 mps 724 mmHg 83%
    06:00 +8°C° 0 mm 3 mps 724 mmHg 80%
    07:00 +10°C° 0 mm 4 mps 723 mmHg 77%
    08:00 +10°C° 0 mm 4 mps 723 mmHg 77%
    09:00 +11°C° 0 mm 4 mps 722 mmHg 77%
    10:00 +11°C° 0 mm 4 mps 721 mmHg 77%
    11:00 +11°C° 0.6 mm 4 mps 721 mmHg 81%
    12:00 +11°C° 0.6 mm 4 mps 720 mmHg 86%
    13:00 +10°C° 0.6 mm 4 mps 719 mmHg 91%
    14:00 +11°C° 1.5 mm 4 mps 719 mmHg 91%
    15:00 +11°C° 1.5 mm 4 mps 718 mmHg 92%
    16:00 +12°C° 1.5 mm 4 mps 717 mmHg 92%
    17:00 +12°C° 0.3 mm 4 mps 717 mmHg 92%
    18:00 +12°C° 0.3 mm 5 mps 717 mmHg 92%
    19:00 +12°C° 0.3 mm 5 mps 717 mmHg 92%
    20:00 +9°C° 0.3 mm 5 mps 717 mmHg 93%
    21:00 +8°C° 0.3 mm 4 mps 717 mmHg 93%
    22:00 +6°C° 0.3 mm 4 mps 717 mmHg 94%
    23:00 +5°C° 0 mm 4 mps 718 mmHg 92%

    24 May, Friday

    Time Temperature Precipitation Wind Pressure Humidity
    00:00 +4°C° 0 mm 4 mps 718 mmHg 91%
    01:00 +2°C° 0 mm 5 mps 719 mmHg 89%
    02:00 +1°C° 0 mm 4 mps 720 mmHg 90%
    03:00 0°C° 0 mm 3 mps 721 mmHg 90%
    04:00 -1°C° 0 mm 3 mps 722 mmHg 91%
    05:00 0°C° 0 mm 3 mps 722 mmHg 85%
    06:00 0°C° 0 mm 4 mps 723 mmHg 79%
    07:00 +1°C° 0 mm 4 mps 724 mmHg 74%
    08:00 +3°C° 0 mm 4 mps 724 mmHg 65%
    09:00 +3°C° 0 mm 5 mps 724 mmHg 57%
    10:00 +6°C° 0 mm 5 mps 725 mmHg 49%
    11:00 +6°C° 0 mm 5 mps 725 mmHg 46%
    12:00 +7°C° 0 mm 5 mps 725 mmHg 43%
    13:00 +8°C° 0 mm 6 mps 726 mmHg 40%
    14:00 +8°C° 0 mm 5 mps 726 mmHg 39%
    15:00 +8°C° 0 mm 5 mps 726 mmHg 39%
    16:00 +8°C° 0 mm 5 mps 726 mmHg 39%
    17:00 +7°C° 0 mm 5 mps 727 mmHg 43%
    18:00 +7°C° 0 mm 4 mps 727 mmHg 47%
    19:00 +7°C° 0 mm 3 mps 727 mmHg 51%
    20:00 +4°C° 0 mm 3 mps 727 mmHg 57%
    21:00 +4°C° 0 mm 2 mps 728 mmHg 63%
    22:00 +2°C° 0 mm 2 mps 728 mmHg 69%
    23:00 +2°C° 0 mm 2 mps 728 mmHg 68%

    25 May, Saturday

    Time Temperature Precipitation Wind Pressure Humidity
    00:00 +1°C° 0 mm 2 mps 728 mmHg 68%
    01:00 +1°C° 0 mm 2 mps 729 mmHg 67%
    02:00 -1°C° 0 mm 2 mps 729 mmHg 68%
    03:00 -1°C° 0 mm 2 mps 729 mmHg 69%
    04:00 -2°C° 0 mm 2 mps 729 mmHg 70%
    05:00 0°C° 0 mm 3 mps 730 mmHg 63%
    06:00 +1°C° 0 mm 4 mps 730 mmHg 55%
    07:00 +4°C° 0 mm 4 mps 731 mmHg 48%
    08:00 +5°C° 0 mm 5 mps 731 mmHg 45%
    09:00 +6°C° 0 mm 5 mps 731 mmHg 43%
    10:00 +7°C° 0 mm 5 mps 731 mmHg 41%
    11:00 +8°C° 0 mm 5 mps 732 mmHg 40%
    12:00 +9°C° 0 mm 5 mps 732 mmHg 38%
    13:00 +9°C° 0 mm 5 mps 732 mmHg 37%
    14:00 +11°C° 0 mm 4 mps 732 mmHg 37%
    15:00 +11°C° 0 mm 4 mps 732 mmHg 37%
    16:00 +11°C° 0 mm 3 mps 732 mmHg 36%
    17:00 +11°C° 0 mm 3 mps 732 mmHg 42%
    18:00 +10°C° 0 mm 2 mps 732 mmHg 47%
    19:00 +10°C° 0 mm 1 mps 733 mmHg 53%
    20:00 +9°C° 0 mm 1 mps 733 mmHg 55%
    21:00 +7°C° 0 mm 1 mps 733 mmHg 58%
    22:00 +5°C° 0 mm 1 mps 733 mmHg 60%
    23:00 +5°C° 0 mm 1 mps 733 mmHg 60%
    Show more